Location: SE Lincoln, NE
(40.7805°N, 96.6275°W)
Time: 03:52:40
(UTC-05:00)

Meteor 1-19 Rocket - Pass Details

Date: 15 May 2021
Orbit: 808 x 927 km, 81.2° (Epoch: 24 June)

Event Time Altitude Azimuth Distance (km) Brightness Sun altitude
Exits shadow 23:39:49 70° 113° (ESE) 859 4.0 -25.5°
Maximum altitude 23:39:59 71° 97° (E) 856 4.0 -25.5°
Drops below altitude 10° 23:45:23 10° 14° (NNE) 2,406 7.2 -25.9°
Sets 23:47:47 0° 12° (NNE) 3,349 8.1 -26.1°
